User: anonymous   Login
Location: Hickory_Viewmont
(35.7830°N, 81.3170°W)
Time: 23:38:15
(UTC-04:00)
Language:

Okean-O - Orbit

View from above orbital plane
View from above orbital plane
View from above satellite
View from above satellite

Ground track
Ground track

The orbit data is extracted from the following two-line orbital elements,

1 25860U 99039A   16212.49812707  .00000066  00000-0  17057-4 0  9997
2 25860  98.1473 187.7217 0001914  89.1828 270.9601 14.76379324916365
Epoch (UTC): 30 July 2016 11:57:18
Eccentricity: 0.0001914
inclination: 98.1473°
perigee height: 639 km
apogee height: 642 km
right ascension of ascending node: 187.7217°
argument of perigee: 89.1828°
revolutions per day: 14.76379324
mean anomaly at epoch: 270.9601°
orbit number at epoch: 91636

The dashed part of the orbit path shows where the satellite is in the earth's shadow,  

DLR